EW5385 Weather Reports


time (UTC)temp
C
wind
direction
speed
KPH
gust
KPH
rain 1hr
cm
rain 24hr
cm
rain mn
cm
humidity
%
barometer
mb
20260505023114 25 206 0.0 0.0 0.00 0.00 0.00 67 1011.9
20260505021549 25 304 0.0 0.0 0.00 0.00 0.00 68 1012.1
20260505020043 25 196 0.0 0.0 0.00 0.00 0.00 67 1012.2
20260505014539 25 223 0.0 0.0 0.00 0.00 0.00 68 1012.4
20260505013035 24 274 0.0 0.0 0.00 0.00 0.00 69 1012.6
20260505011534 24 143 0.0 0.0 0.00 0.00 0.00 69 1012.9
20260505010026 24 165 0.0 0.0 0.00 0.00 0.00 68 1013.3
20260505004540 23 261 0.0 0.0 0.00 0.00 0.00 62 1013.5
20260505003017 22 164 0.0 0.0 0.00 0.00 0.00 59 1013.7
20260505001513 22 219 0.0 0.0 0.00 0.00 0.00 55 1013.9
20260505000013 22 157 0.0 0.0 0.00 0.00 0.00 46 1013.9
20260504234508 21 280 0.0 0.0 0.00 0.00 0.00 26 1014.0
20260504233101 21 224 0.0 0.0 0.00 0.00 0.00 1 1014.2
20260504231555 20 245 0.0 0.0 0.00 0.00 0.00 1 1014.3
20260504230104 20 223 0.0 0.0 0.00 0.00 0.00 1 1014.3
20260504224546 19 257 0.0 9.7 0.00 0.00 0.00 1 1014.3
20260504223042 18 200 0.0 0.0 0.00 0.00 0.00 1 1014.2
20260504221549 18 238 0.0 1.6 0.00 0.00 0.00 1 1014.4
20260504220032 18 229 0.0 0.0 0.00 0.00 0.00 1 1014.2
20260504214528 17 231 0.0 0.0 0.00 0.00 0.00 1 1014.1
20260504213023 17 223 0.0 0.0 0.00 0.00 0.00 1 1014.1
20260504211519 17 219 0.0 0.0 0.00 0.00 0.00 1 1014.0
20260504210018 16 223 0.0 0.0 0.00 0.00 0.00 1 1013.9
20260504204509 16 251 0.0 0.0 0.00 0.00 0.00 1 1013.7
20260504203007 -17 0.0 0.0 0.00 0.00 0.00 1013.6
20260504201602 -17 0.0 0.0 0.00 0.00 0.00 1013.5
20260504200055 -17 0.0 0.0 0.00 0.00 0.00 1013.4
20260504194551 -17 0.0 0.0 0.00 0.00 0.00 1013.1
20260504193047 -17 0.0 0.0 0.00 0.00 0.00 1012.9
20260504191543 -17 0.0 0.0 0.00 0.00 0.00 1012.8
20260504190038 -17 0.0 0.0 0.00 0.00 0.00 1012.7
20260504184534 -17 0.0 0.0 0.00 0.00 0.00 1012.6
20260504183029 -17 0.0 0.0 0.00 0.00 0.00 1012.7
20260504181529 -17 0.0 0.0 0.00 0.00 0.00 1012.5
20260504180021 -17 0.0 0.0 0.00 0.00 0.00 1012.4
20260504174516 -17 0.0 0.0 0.00 0.00 0.00 1012.4
20260504173011 -17 0.0 0.0 0.00 0.00 0.00 1012.5
20260504171507 -17 0.0 0.0 0.00 0.00 0.00 1012.5
20260504100103 20 88 0.0 0.0 0.00 0.00 0.00 1 1014.4
20260504081537 21 96 0.0 0.0 0.00 0.00 0.00 21 1013.4
20260504044530 25 97 1.6 14.5 0.00 0.00 0.00 69 1012.3
20260504043025 24 96 0.0 6.4 0.00 0.00 0.00 68 1012.2
20260504041520 24 101 0.0 0.0 0.00 0.00 0.00 69 1012.3
20260504040018 24 96 0.0 0.0 0.00 0.00 0.00 69 1012.3
20260504034510 24 78 0.0 0.0 0.00 0.00 0.00 69 1012.4
20260504033008 24 91 0.0 16.1 0.00 0.00 0.00 68 1012.4
20260504031505 24 93 0.0 0.0 0.00 0.00 0.00 69 1012.6
20260504030058 24 85 0.0 0.0 0.00 0.00 0.00 69 1012.7
20260504024608 25 117 0.0 8.0 0.00 0.00 0.00 68 1012.9